Theta_e
334 335 336 336 336 337 338 338 337 337 337 337 338 337 337 337 337 336 336 334 334 334 334 334 335 335 334 334 334 333 333 332 332 331 330 329 328 328 328 328 328 327 327 328 328 328 329 329 329 329 330 329 325 325 326 327 328 327 327 328 328 328 327 327 326 326 325 325 326 325 325 326 329 331 330 329 330 331 332 332 331 331 331 331 331
335 335 334 335 335 335 336 336 336 336 337 337 337 337 337 337 337 336 335 334 333 333 333 333 334 333 333 332 332 332 332 331 331 331 330 329 328 327 326 326 327 327 327 329 328 328 329 329 330 330 330 330 327 325 325 325 326 326 326 327 328 327 326 327 326 326 326 326 326 327 327 326 328 331 330 328 329 330 331 331 331 331 331 331 332
338 335 332 333 334 334 334 334 334 335 335 336 337 337 337 337 336 336 334 333 332 332 332 332 332 332 331 330 331 331 330 330 330 330 330 329 328 328 327 326 326 326 327 329 328 328 328 328 329 329 329 329 329 328 326 326 326 326 327 327 327 326 326 326 327 326 327 327 327 332 333 331 331 331 329 327 326 327 329 330 330 330 330 331 330
338 335 331 331 333 334 333 333 333 333 334 335 335 336 337 336 336 335 334 332 331 331 332 331 331 330 330 330 329 330 329 329 329 329 328 328 327 327 327 326 327 326 326 327 327 328 328 327 328 328 328 329 329 328 327 327 327 327 326 326 326 326 326 327 327 326 327 328 329 332 332 332 334 332 328 327 324 324 327 328 328 328 328 328 328
336 335 331 329 332 334 334 333 333 333 333 333 334 335 336 336 335 334 333 330 331 333 332 330 331 330 329 329 328 328 329 328 329 328 327 326 324 324 324 324 326 327 326 325 325 326 327 327 327 327 328 328 328 327 327 328 327 326 325 325 325 324 326 326 324 325 327 327 328 330 330 332 334 330 329 328 322 323 327 326 325 326 327 327 326
334 334 331 330 330 331 332 333 333 332 333 333 333 334 334 334 333 334 332 330 332 333 331 330 331 330 329 330 328 328 329 328 329 327 324 323 322 322 323 323 325 326 326 324 324 325 326 326 326 326 327 327 325 325 326 327 325 324 323 323 322 322 323 323 322 324 326 326 326 327 329 331 330 329 331 331 326 324 325 325 325 324 324 327 327
333 332 331 331 329 328 331 332 332 331 331 331 333 333 334 333 333 333 330 329 332 333 331 331 331 331 330 330 329 329 329 328 328 325 321 321 321 322 324 323 324 326 326 325 323 324 326 325 324 324 324 325 324 322 323 324 323 322 321 320 319 319 320 321 321 322 323 322 322 323 324 325 325 327 330 332 331 328 324 322 323 322 322 325 327
333 333 332 330 329 329 332 333 330 330 330 330 332 333 334 333 333 332 330 329 333 333 333 332 332 331 330 330 329 329 329 328 326 324 323 322 322 324 325 324 325 325 326 325 323 323 325 325 324 322 322 323 322 321 321 322 321 321 320 319 319 318 318 319 320 320 320 319 319 319 320 321 322 324 326 328 330 331 328 324 322 321 321 321 323
332 333 332 330 329 330 331 331 329 328 328 328 330 332 333 333 333 332 330 330 332 333 333 333 332 332 331 331 330 329 329 327 325 326 325 324 323 324 325 325 326 325 325 324 322 323 324 324 324 322 322 323 322 321 321 320 321 320 319 319 319 318 318 318 317 318 318 318 318 318 318 319 320 321 321 323 327 330 329 326 322 321 320 319 320
331 331 330 330 330 330 330 329 328 327 327 326 327 329 331 332 333 332 331 331 332 332 333 332 332 333 332 332 331 330 328 325 327 328 325 323 324 324 324 325 325 324 324 323 323 324 324 323 323 321 322 323 322 321 320 320 321 320 318 319 319 318 318 318 316 317 318 317 317 317 317 317 318 318 317 318 322 324 324 323 321 320 321 320 319
330 329 329 330 330 329 329 329 328 326 326 325 325 326 328 330 330 331 330 330 331 332 333 333 333 333 333 333 332 330 328 326 328 329 325 323 324 324 323 324 324 324 325 324 323 324 323 323 322 320 320 321 320 320 321 320 320 319 318 319 319 317 318 319 318 318 318 317 316 316 316 316 317 317 317 317 318 320 322 322 320 319 319 318 318
327 329 329 329 328 328 328 328 328 327 326 326 326 326 327 328 328 329 329 329 329 331 332 332 333 333 333 333 332 330 329 329 329 327 325 324 324 323 323 323 325 325 324 324 323 323 322 322 322 319 319 320 319 319 319 319 318 318 318 318 317 317 318 318 317 318 317 316 317 317 316 317 317 316 316 316 317 318 320 320 318 318 319 317 316
324 328 329 328 328 328 328 328 329 329 328 327 327 327 327 328 328 328 329 329 328 329 329 330 332 332 332 332 332 331 331 331 331 328 326 325 325 323 322 323 324 325 324 324 323 323 322 322 321 319 319 320 319 319 319 318 317 317 318 318 317 317 317 317 316 317 316 316 317 317 316 317 316 315 315 315 316 316 316 317 317 316 317 316 315
322 324 325 325 324 327 329 329 329 330 330 329 328 328 327 327 327 327 328 327 327 327 327 328 329 330 330 331 331 331 331 331 330 329 327 326 326 324 323 323 324 324 324 324 323 322 322 321 321 319 319 319 319 318 318 317 315 315 316 317 316 316 316 316 316 316 315 315 316 315 315 316 315 314 315 315 315 315 314 315 316 316 315 314 314
322 322 322 321 320 323 327 328 328 329 330 329 329 328 328 327 327 327 326 325 326 326 326 327 328 328 329 329 330 330 331 330 328 327 327 327 326 325 324 324 325 324 323 324 323 322 320 320 320 320 319 318 317 317 316 316 314 313 314 314 313 314 314 315 315 315 315 314 314 314 313 314 314 314 314 314 314 314 314 314 315 318 318 316 314
322 323 322 320 319 321 324 325 325 326 326 326 328 329 329 328 327 327 326 325 325 325 325 326 326 326 327 327 328 329 329 329 327 326 326 326 325 324 324 325 326 324 323 323 323 322 320 320 320 320 319 316 315 315 315 315 313 312 314 313 313 313 314 314 314 313 313 314 314 313 313 313 313 313 312 312 312 312 313 312 312 314 317 318 317
323 323 321 319 319 320 322 323 323 322 323 323 324 326 328 328 328 328 327 326 325 325 324 325 325 325 325 325 326 327 327 326 325 324 324 325 325 325 324 324 325 324 323 323 323 322 321 321 320 319 317 315 314 314 314 314 312 312 313 313 312 313 313 313 312 311 312 313 313 313 313 313 313 312 312 311 311 311 311 311 311 311 313 316 318
323 323 320 318 319 319 320 322 322 321 322 321 322 323 325 326 327 328 328 327 326 326 325 325 325 325 324 325 326 325 324 323 323 324 324 325 325 325 325 325 325 324 324 324 322 321 322 321 319 318 316 314 313 314 314 313 312 311 313 312 312 312 312 311 310 310 311 312 312 312 312 312 311 311 311 311 310 311 311 310 311 310 311 313 314
325 325 323 318 318 319 319 321 321 321 321 321 322 322 322 323 324 325 326 327 327 326 326 326 326 326 325 325 325 325 324 323 324 324 324 325 325 325 325 326 325 325 325 324 322 322 322 321 318 317 315 314 314 313 313 313 312 311 312 312 311 312 311 310 310 311 312 312 312 312 311 310 310 310 310 310 310 310 310 310 310 310 309 310 311
325 326 324 319 318 319 319 319 320 320 320 320 321 321 321 321 322 323 323 324 325 325 326 327 326 326 325 325 325 325 324 324 325 324 324 324 324 324 325 325 325 325 324 323 323 322 321 320 318 316 316 315 314 313 313 313 313 311 311 312 311 310 310 311 311 312 311 311 311 311 310 310 310 310 309 309 309 309 309 309 309 309 309 309 309
325 326 323 318 317 318 318 318 319 319 318 318 320 320 319 319 321 323 323 323 323 323 325 326 325 325 325 325 325 325 324 324 324 324 323 323 323 323 323 324 324 324 323 323 323 322 321 319 317 316 316 315 315 314 313 314 313 312 311 311 310 310 310 311 310 310 310 310 310 310 310 309 309 309 309 309 309 309 309 309 309 309 308 309 309
325 325 320 317 317 317 317 317 318 318 318 317 318 319 319 319 320 321 322 323 323 323 323 324 324 324 325 325 325 324 324 323 322 323 322 323 323 322 322 323 324 323 323 324 323 322 320 318 317 316 315 315 315 314 314 314 314 312 311 310 311 311 311 310 309 309 310 309 309 309 309 308 308 308 308 308 308 308 308 308 308 309 308 308 308
324 321 318 317 318 317 317 317 316 317 317 317 317 318 318 319 319 320 320 321 322 323 323 323 323 324 324 324 324 323 323 322 321 321 321 321 321 322 323 323 323 322 322 322 321 321 319 317 317 316 316 315 315 315 314 314 314 312 311 310 311 311 311 310 310 310 309 309 308 308 308 308 308 308 307 308 308 308 308 308 308 308 308 308 308
324 319 315 315 316 316 316 316 316 316 316 316 317 317 318 318 319 320 319 319 320 322 323 322 322 322 322 322 322 322 322 322 321 320 320 320 320 321 322 322 322 321 320 319 320 319 318 317 317 316 316 316 316 315 314 314 314 312 311 311 310 310 311 311 310 310 309 309 308 308 308 308 307 307 307 307 307 307 307 308 308 308 308 307 307
323 321 317 315 315 315 315 315 315 315 316 316 317 317 318 317 318 318 318 317 317 320 321 321 320 319 320 320 321 322 322 322 322 321 321 320 320 320 321 322 321 320 319 319 319 318 316 316 317 316 316 317 316 315 315 314 313 312 311 311 310 310 311 311 310 309 308 308 308 307 307 307 307 307 307 307 307 307 307 308 307 307 307 307 307
320 321 319 316 314 314 314 314 314 315 315 316 317 317 317 316 317 317 318 318 317 317 318 318 318 318 317 318 319 320 321 321 321 322 321 321 320 320 320 320 321 320 319 319 318 318 317 317 317 316 316 316 316 316 315 314 313 312 311 310 310 309 309 310 310 308 307 307 308 307 307 307 307 307 307 307 307 307 307 307 307 307 307 307 307
319 320 319 317 315 313 314 314 313 314 314 314 315 316 316 315 315 316 318 318 317 316 317 317 317 317 317 317 317 318 319 320 320 321 321 321 321 320 320 320 320 320 320 320 319 318 318 318 317 317 317 317 316 315 314 313 313 312 311 310 309 309 309 310 309 308 307 307 308 307 307 307 307 307 307 307 307 307 306 306 306 306 306 306 306
319 319 319 318 316 313 313 314 313 313 313 313 314 315 314 313 314 316 317 318 317 317 317 316 316 317 316 316 316 317 317 318 319 320 320 320 320 320 320 320 320 320 320 320 319 319 319 318 318 317 317 317 316 314 313 313 312 311 310 309 309 310 310 309 309 308 308 308 307 307 307 306 306 306 306 306 306 305 305 305 305 305 305 305 305
318 318 318 319 316 312 312 313 313 313 313 312 313 313 313 312 313 315 315 316 317 317 317 316 316 316 316 316 316 317 317 317 319 320 320 320 320 319 319 319 320 320 320 320 320 319 319 318 318 317 316 316 316 315 314 313 312 311 310 309 309 310 310 309 308 308 308 307 306 307 306 306 306 306 306 306 305 305 304 304 303 303 303 303 303
317 317 318 317 313 311 312 312 312 313 312 312 312 312 311 312 312 313 313 314 317 318 317 317 316 316 316 316 316 316 317 317 319 319 320 320 320 319 318 318 318 319 319 319 319 319 319 318 318 317 317 317 316 315 315 313 312 312 311 310 309 309 309 308 308 308 307 306 306 306 306 307 307 306 305 305 304 304 303 302 302 301 301 301 301
317 317 317 316 312 311 312 312 312 312 311 311 311 310 310 311 311 311 311 312 315 318 318 316 316 316 316 316 316 316 316 317 318 319 320 320 320 319 318 318 317 317 317 318 318 318 318 318 318 318 317 316 316 315 314 313 312 313 312 311 310 308 307 308 308 308 307 307 307 306 306 307 307 306 305 304 304 303 302 302 301 301 301 301 301
317 317 318 317 313 312 312 311 311 311 311 311 310 309 309 310 310 311 311 311 312 315 315 313 313 315 316 316 317 316 315 316 317 319 319 319 319 319 319 318 318 317 317 317 317 316 316 316 317 318 317 316 314 313 313 313 314 313 313 311 309 307 305 305 306 307 307 307 306 306 306 306 306 305 304 304 304 303 302 303 302 301 301 301 301
318 318 317 315 312 312 311 311 311 310 311 311 309 309 309 309 309 310 310 309 309 310 311 310 310 313 314 315 317 316 315 315 316 317 318 319 319 319 320 320 319 318 317 317 317 316 316 316 316 317 317 317 315 314 313 314 314 313 312 311 309 308 306 302 301 304 306 306 306 306 305 305 305 305 305 305 304 303 303 303 302 301 301 301 301
319 317 314 311 311 312 311 310 310 309 310 310 309 309 309 308 308 309 309 308 308 308 308 308 309 309 309 312 316 316 314 314 315 315 316 317 318 319 320 320 320 319 319 318 317 316 317 318 318 318 317 317 316 315 314 313 313 313 312 310 308 309 308 300 296 301 305 306 306 305 305 305 304 304 305 304 303 303 302 302 302 301 300 301 301
319 316 312 311 311 311 310 310 310 309 309 309 308 308 308 308 308 309 308 308 307 307 307 307 307 308 307 309 314 316 315 314 314 314 314 315 316 317 318 319 320 320 319 318 318 317 316 317 318 318 317 316 316 315 314 313 313 312 311 310 309 310 308 299 295 301 306 306 306 305 305 304 304 304 304 303 303 303 302 302 302 301 300 301 301
314 314 312 310 310 310 310 309 309 309 309 308 308 308 308 308 308 308 308 308 307 307 307 306 306 307 307 308 313 316 315 313 313 314 314 314 315 316 317 318 319 319 319 318 318 317 316 316 317 317 316 316 315 315 314 313 312 312 311 311 310 310 306 298 296 302 306 306 305 305 304 304 304 303 303 303 303 303 303 302 302 301 300 301 302
311 311 310 310 310 310 310 309 309 308 308 308 308 308 308 307 308 308 308 307 307 307 307 306 306 306 306 308 312 315 314 312 311 312 313 314 315 315 316 317 318 318 318 318 318 318 317 316 316 316 316 315 314 314 313 312 311 311 311 311 311 309 304 298 295 301 305 305 305 305 304 304 303 303 303 303 303 303 303 303 302 300 299 301 302
311 311 310 310 310 309 309 309 309 308 308 308 307 307 308 307 307 308 308 307 308 307 307 306 305 305 306 308 310 311 311 310 310 310 311 313 314 315 315 316 317 318 318 318 318 318 318 317 317 316 316 315 315 314 313 312 312 312 311 311 310 308 304 298 295 300 304 305 304 304 304 304 303 303 303 303 303 303 303 302 301 298 296 297 298
311 310 310 310 309 309 309 308 308 308 307 306 307 307 308 307 307 307 307 307 307 307 306 306 306 306 308 309 310 309 308 308 309 309 309 310 314 315 315 315 316 317 318 318 318 318 318 318 318 317 316 315 314 314 314 313 313 311 310 310 309 307 304 299 296 300 304 305 305 305 304 304 304 304 303 303 303 302 302 301 299 296 294 293 292
311 310 309 309 308 308 308 308 307 307 306 306 307 307 307 306 306 307 307 306 306 306 306 306 307 307 308 308 308 308 308 307 308 309 309 309 312 315 315 315 315 315 316 317 317 317 317 317 317 317 316 315 314 314 314 313 313 311 309 308 308 308 307 301 297 301 305 305 305 305 304 305 305 305 304 303 303 302 301 300 299 297 295 293 291
310 309 309 308 308 307 307 307 306 306 306 306 306 306 306 306 306 306 306 306 305 305 306 306 307 307 307 307 307 307 308 308 308 309 309 309 311 314 316 315 315 315 316 316 316 317 316 316 316 316 316 315 315 314 314 314 313 310 308 308 308 309 309 303 298 302 306 305 305 306 305 305 305 305 305 305 304 302 301 300 300 298 294 291 288
309 308 307 306 306 305 305 306 306 306 306 305 305 305 305 305 305 306 306 305 305 306 307 306 306 307 307 307 307 307 308 308 308 308 308 309 310 313 316 316 315 315 315 315 316 316 316 316 316 315 315 315 314 314 314 314 313 311 309 309 309 309 310 304 298 301 306 306 306 306 306 305 305 305 305 305 305 303 302 301 300 297 292 288 287
306 305 304 304 304 304 304 305 305 305 305 305 305 305 305 305 305 305 305 305 305 306 306 306 306 306 306 307 307 307 307 307 308 308 308 308 308 310 313 315 315 314 315 315 315 316 316 315 315 315 315 315 314 314 314 313 313 312 311 310 309 309 309 305 299 299 303 305 305 306 306 305 305 305 305 305 305 304 303 302 300 298 294 289 288
304 304 304 304 303 304 303 304 305 305 305 305 305 305 305 305 305 305 305 306 306 306 306 306 306 306 306 306 306 306 306 307 308 308 308 308 308 308 310 313 314 314 314 314 314 315 315 315 315 315 315 315 314 314 313 313 313 313 312 311 310 309 309 305 299 297 300 304 305 305 306 305 305 305 305 305 304 304 303 302 300 299 296 291 288
304 304 304 303 303 304 303 303 304 305 305 305 305 305 305 305 305 305 306 306 306 306 305 306 306 306 306 306 306 306 307 307 308 308 307 307 308 308 310 312 314 314 312 312 313 314 314 315 315 315 315 315 314 314 313 313 313 313 312 312 310 309 308 306 301 297 297 300 302 303 304 305 305 305 304 304 304 303 303 302 300 299 296 291 288
304 304 304 304 304 304 303 303 304 305 305 305 305 305 305 305 305 305 305 305 305 306 305 306 306 306 306 306 306 307 307 307 307 307 307 306 307 309 311 312 312 311 310 310 310 312 313 314 314 315 315 314 314 314 313 313 312 312 312 312 310 309 308 306 303 299 296 296 298 299 300 302 303 304 304 304 303 303 302 301 300 299 295 290 289
305 304 304 304 304 304 304 304 304 305 305 305 305 305 305 304 304 304 305 305 305 306 306 306 306 306 306 306 307 307 307 307 307 307 307 306 307 308 309 309 308 308 307 307 308 309 311 313 313 314 314 314 314 314 313 313 312 312 312 311 310 309 307 305 303 301 297 295 296 297 297 299 301 303 303 303 302 302 301 300 299 297 293 289 289
305 304 304 304 304 304 304 304 304 305 305 305 305 305 304 304 303 304 305 305 306 306 306 306 306 306 306 306 307 308 307 307 307 308 307 307 307 308 308 308 307 307 307 307 308 308 309 310 311 312 312 312 312 313 313 313 313 312 311 311 310 309 307 305 304 302 298 295 296 297 297 298 300 301 301 301 300 300 299 297 296 294 292 289 288
304 304 304 304 304 304 304 304 304 305 305 305 305 305 304 303 304 304 304 305 306 306 305 306 306 306 306 306 306 306 306 306 307 308 307 307 307 307 308 308 307 307 308 308 308 308 308 308 309 310 311 311 311 312 313 313 313 312 312 311 311 310 308 306 306 304 300 296 295 296 297 297 298 298 299 298 298 297 296 295 293 292 291 289 288
304 304 304 304 304 304 304 304 304 305 305 305 305 304 303 303 303 304 303 304 305 305 304 305 305 305 306 306 305 305 305 306 307 307 307 307 306 307 307 307 307 307 308 309 309 309 309 308 308 309 310 310 311 312 312 312 312 312 312 311 311 311 309 308 306 303 300 298 296 295 296 296 297 297 297 297 297 296 295 293 291 291 291 289 288
304 304 304 304 304 304 304 304 305 305 305 305 305 304 303 302 302 303 304 303 303 303 303 304 305 305 305 304 304 305 305 305 306 307 307 306 306 306 306 307 306 307 308 309 309 309 309 308 307 308 309 309 309 310 310 311 311 311 311 311 311 310 309 308 306 303 301 299 296 295 295 295 296 296 296 296 295 295 293 292 291 292 292 290 288
Wind_Speed
11 18 19 19 18 18 18 17 16 14 12 12 12 12 13 14 14 13 12 11 13 13 12 13 14 13 13 13 12 12 11 11 10 9 8 7 7 7 6 5 5 5 6 5 5 5 5 5 4 3 3 3 2 3 4 4 3 2 2 2 2 1 1 2 3 2 2 2 2 1 1 1 1 1 1 0 1 2 4 5 5 6 7 7 7
9 13 15 17 17 19 21 20 18 15 13 13 13 13 14 14 14 14 13 12 12 12 12 13 13 13 13 13 13 13 12 11 10 10 8 7 6 6 5 4 5 5 6 6 5 4 4 4 3 2 1 1 2 3 3 3 2 1 1 1 2 2 2 3 3 2 2 3 2 2 2 1 1 2 4 2 1 1 2 3 5 5 6 6 6
6 6 8 12 12 15 18 21 21 18 16 15 15 15 14 13 12 12 12 12 12 11 10 10 11 11 11 12 13 13 13 12 11 10 10 9 7 6 5 5 5 5 6 6 5 5 4 3 3 2 2 1 2 2 3 3 3 2 2 2 3 4 4 5 5 3 2 2 2 2 2 1 1 2 1 2 2 1 0 1 3 4 5 5 5
5 4 5 5 7 8 11 16 20 21 19 16 13 14 14 12 11 10 9 11 11 9 8 9 10 10 10 11 12 12 13 13 12 10 10 9 8 9 7 7 8 7 7 7 7 6 6 5 4 4 4 3 3 4 4 4 4 3 2 2 2 3 4 4 5 5 4 2 1 1 1 1 1 2 4 4 3 2 1 1 1 3 3 3 3
5 5 4 2 4 3 6 12 15 17 17 15 13 13 14 14 14 12 10 12 12 9 10 11 11 11 10 11 12 12 13 13 12 10 10 10 9 10 9 7 9 10 9 9 8 8 7 7 7 6 6 5 5 5 5 5 5 4 2 0 1 2 3 3 4 5 6 4 3 2 1 1 1 2 4 3 3 4 2 2 4 4 4 5 4
5 5 3 2 7 5 4 8 8 7 8 10 12 14 16 16 16 15 15 18 16 12 14 14 12 12 12 13 15 15 15 15 13 11 10 10 9 10 10 7 8 11 11 8 9 9 8 8 8 7 7 8 7 5 6 7 6 4 2 1 2 1 0 1 3 4 6 6 5 3 2 2 1 2 2 1 4 3 2 6 8 8 6 4 6
5 5 3 5 8 6 10 9 5 4 4 5 8 12 16 16 17 17 18 21 18 13 14 13 12 13 14 16 17 16 17 16 14 12 10 10 10 11 10 8 8 11 11 8 8 10 9 8 7 7 8 9 7 6 7 8 6 4 2 1 1 1 1 1 3 4 4 6 6 5 4 3 1 1 1 1 3 2 4 8 9 10 11 8 4
5 5 3 2 8 12 15 12 8 5 4 4 7 11 15 16 18 18 19 22 19 14 14 13 12 14 14 15 15 15 15 14 13 12 10 11 12 11 10 11 10 11 10 8 8 10 10 8 8 8 9 9 8 8 7 6 5 3 2 1 2 2 1 2 3 3 3 4 5 5 5 5 3 2 0 1 0 1 4 6 8 9 13 16 14
4 4 3 2 2 6 9 9 7 6 6 6 8 9 11 15 18 19 20 21 19 17 17 16 16 16 15 15 15 14 14 13 13 13 13 14 14 14 13 12 12 11 10 8 8 10 10 10 9 8 8 9 9 8 6 5 5 4 3 3 3 3 3 2 2 2 3 4 4 5 5 5 6 6 5 1 2 2 2 3 6 8 9 14 15
4 4 4 4 4 3 4 8 7 5 6 6 9 10 9 11 15 18 20 19 17 17 18 20 20 19 18 19 18 17 16 15 15 16 17 17 17 17 16 15 13 12 11 10 9 11 11 11 10 8 8 10 10 8 8 7 5 4 4 5 4 3 3 3 3 3 3 3 4 5 5 5 5 6 7 6 2 1 1 2 4 7 5 10 13
4 4 4 5 6 7 7 8 8 3 4 3 6 9 9 9 12 18 19 17 16 15 14 17 19 18 19 20 20 19 17 18 19 19 21 21 20 20 18 16 15 14 12 12 12 12 12 12 11 10 10 10 9 8 9 8 6 5 5 6 5 3 3 4 4 4 2 2 3 4 5 6 5 4 5 6 3 1 1 1 3 5 3 7 11
4 4 4 4 5 8 10 11 11 7 4 4 5 7 8 8 10 14 18 17 16 15 13 11 11 12 13 13 16 19 19 19 21 22 23 23 23 21 20 19 17 16 15 14 14 14 13 13 12 12 12 11 10 10 11 9 7 7 6 6 5 5 5 5 4 3 1 1 1 3 4 4 4 5 4 5 4 1 3 1 2 3 3 5 9
5 5 4 5 6 8 10 12 13 11 8 7 7 7 8 9 9 11 15 15 14 14 14 12 10 10 10 9 12 16 19 20 22 25 26 25 25 23 22 22 21 20 19 18 17 15 14 14 13 13 12 11 11 11 11 9 8 8 8 7 6 6 5 4 3 3 2 1 0 1 3 2 3 4 5 5 4 2 4 3 2 4 3 3 6
5 5 5 6 9 10 9 11 13 12 11 10 10 9 8 10 11 12 13 13 13 12 13 14 14 14 14 14 14 14 16 19 22 26 27 26 25 24 24 25 24 24 22 20 18 17 15 15 14 13 12 11 12 11 10 9 8 7 7 7 6 6 5 4 3 3 3 2 1 2 2 1 2 3 4 4 3 3 4 3 2 4 5 4 5
5 5 6 9 14 14 11 12 14 12 11 11 11 11 11 10 10 12 13 13 13 13 13 15 16 17 17 18 19 17 16 18 21 24 26 27 26 24 24 25 24 24 23 21 18 17 16 15 14 14 13 12 12 11 9 8 7 8 6 5 5 4 4 5 4 4 3 2 1 0 0 1 2 4 4 6 5 5 5 5 3 3 3 4 4
5 5 6 9 15 16 14 14 15 14 13 13 11 10 11 11 11 11 9 9 10 12 14 16 16 18 18 18 19 19 19 21 21 18 16 18 22 24 23 24 24 23 22 22 19 17 17 16 15 14 12 12 11 10 9 7 7 8 7 6 5 4 4 4 3 4 4 2 1 1 2 2 3 4 5 6 6 5 6 5 5 5 3 2 2
5 5 5 8 12 14 15 14 15 16 15 14 13 10 9 9 11 11 9 8 7 9 14 17 18 20 22 22 22 23 23 21 16 15 14 11 15 22 24 25 25 23 22 22 21 19 18 17 15 14 12 12 11 10 9 7 7 8 7 6 6 4 4 4 3 4 4 2 2 2 2 2 1 2 3 4 3 3 4 4 5 5 4 2 1
5 5 6 9 11 12 14 13 13 14 14 14 14 12 10 9 9 10 10 9 8 8 11 12 14 17 20 24 25 23 21 19 17 18 19 17 19 23 24 25 26 24 24 23 21 20 20 19 17 15 14 13 12 10 9 7 6 7 7 6 5 5 4 3 3 3 3 2 2 2 2 2 1 0 1 2 2 2 2 3 4 4 4 3 4
4 5 5 8 10 11 12 13 12 13 14 13 13 13 13 12 12 10 10 10 9 10 11 12 14 15 16 18 20 20 20 22 24 24 24 23 22 20 21 26 28 26 26 25 22 22 22 21 18 17 16 14 13 11 9 8 6 5 6 6 5 4 4 4 4 3 3 3 3 2 2 2 2 2 0 1 2 2 2 2 3 3 4 4 3
4 4 4 7 9 10 12 13 12 13 15 14 13 14 14 14 14 12 11 11 11 12 12 13 16 17 17 18 17 17 19 23 26 27 26 24 21 17 18 25 30 30 29 27 24 24 24 22 19 18 18 16 15 13 10 9 7 5 6 6 5 4 4 5 5 4 4 3 3 3 2 2 3 3 1 0 1 2 3 3 3 3 4 4 4
3 4 4 7 9 11 13 15 14 13 15 15 14 14 15 15 15 13 12 11 11 12 12 12 14 16 18 19 19 19 18 19 21 22 23 21 21 20 18 22 30 32 30 27 26 26 25 22 20 20 19 17 16 14 11 10 8 6 6 5 5 5 5 4 3 3 3 3 3 3 3 3 3 3 2 1 0 1 1 2 3 3 4 4 3
3 3 5 7 9 11 14 17 17 15 16 18 17 15 14 15 16 15 14 12 11 11 11 11 12 13 15 17 19 19 18 19 19 19 17 15 17 18 17 19 27 29 28 29 29 28 25 22 21 22 20 17 16 14 13 12 10 7 6 5 5 6 5 4 3 3 2 2 3 3 3 3 3 3 3 2 2 1 1 0 2 2 3 4 3
4 4 6 8 9 11 15 18 20 20 19 21 21 18 16 16 16 16 15 15 13 11 10 9 10 11 13 15 16 17 18 18 17 18 17 14 14 15 14 17 21 24 26 28 29 27 24 21 20 20 19 16 15 15 15 14 11 9 7 5 6 6 6 4 4 4 3 2 3 3 3 3 3 3 3 3 2 2 2 1 1 2 2 3 3
4 5 7 10 10 12 15 17 19 21 21 22 23 19 18 19 17 15 16 16 16 13 11 10 10 11 12 13 15 16 17 16 15 15 15 14 15 16 14 14 16 21 23 25 26 24 22 21 19 19 19 17 17 18 17 16 13 9 7 6 6 7 7 7 6 5 4 4 4 3 3 4 4 4 3 3 3 3 3 2 1 1 1 1 2
4 5 6 8 10 12 14 16 18 20 20 21 21 19 20 20 18 16 16 16 16 14 13 14 14 13 13 13 15 16 16 16 14 13 13 13 13 15 14 12 13 16 18 20 22 21 20 20 21 22 22 20 19 19 19 17 14 10 8 7 7 8 8 9 8 7 7 6 6 5 4 4 4 4 4 4 4 4 3 4 3 2 2 2 2
4 4 4 6 8 11 13 15 17 18 19 19 18 18 20 21 19 18 15 15 17 15 14 15 15 14 15 15 16 16 16 15 14 13 12 11 11 13 15 15 14 14 16 17 18 18 19 21 23 23 23 22 21 21 21 19 15 11 9 8 8 9 9 10 9 9 8 7 7 6 6 7 7 5 5 4 4 4 4 4 4 4 4 4 4
3 4 4 5 6 8 11 14 16 17 18 18 17 17 19 21 21 19 14 14 17 16 15 15 15 15 17 17 17 18 18 17 15 13 11 10 9 11 13 15 16 15 16 18 19 18 17 19 22 25 24 23 23 23 21 18 15 13 11 10 9 9 11 11 10 9 8 7 7 8 8 9 8 7 5 5 4 4 3 3 4 4 4 5 5
4 4 4 3 4 6 9 11 14 15 16 17 17 16 17 20 21 18 14 14 16 16 16 16 15 16 18 18 18 18 18 17 17 16 14 11 9 9 10 11 12 14 15 17 22 22 19 14 15 21 25 24 24 24 21 18 17 14 12 10 10 10 11 11 10 9 9 9 8 8 8 9 8 7 5 5 4 4 4 5 5 5 6 6 7
4 3 2 2 3 6 8 11 14 15 15 16 16 16 18 20 20 18 16 16 15 15 17 17 16 17 18 17 18 18 17 16 16 16 16 15 12 10 10 10 11 12 12 13 16 20 19 15 12 15 19 21 22 23 21 19 18 16 13 11 10 11 12 11 11 11 11 10 9 8 7 7 8 7 6 5 5 6 5 5 5 5 6 6 7
2 1 1 2 4 6 9 12 15 16 16 16 16 17 19 21 20 19 21 19 14 13 16 17 16 17 17 16 18 19 18 17 16 16 16 16 15 13 12 12 12 12 12 12 11 12 14 16 17 16 16 18 21 23 22 22 21 18 15 13 12 13 13 13 13 13 12 11 10 8 6 6 7 6 5 5 6 6 3 1 1 2 2 2 2
2 1 1 2 4 6 9 12 14 17 17 16 15 17 18 19 18 19 22 21 15 12 14 18 18 18 17 17 18 19 20 18 16 14 15 15 15 15 14 13 13 14 15 15 15 14 13 14 17 18 16 17 22 25 25 25 24 21 17 14 14 14 13 14 15 14 13 11 11 9 8 9 10 7 5 4 4 4 1 1 1 1 2 3 3
3 2 1 2 3 5 8 11 14 17 17 14 14 16 17 16 16 16 18 19 17 14 15 20 21 19 18 18 17 19 20 19 17 15 14 14 14 14 15 15 15 15 16 16 17 18 18 17 19 20 18 17 20 25 27 26 25 22 18 17 17 14 13 15 16 15 13 12 12 11 11 12 11 8 5 4 3 2 3 3 2 1 2 2 2
4 3 2 2 3 5 8 11 14 17 17 14 14 17 17 14 15 14 14 16 17 16 17 20 22 20 19 18 16 16 19 19 18 17 15 15 15 14 14 15 16 15 16 16 17 18 19 20 20 21 21 21 21 23 24 24 24 22 20 19 19 16 12 14 16 16 15 14 13 14 14 14 11 8 7 6 5 4 5 5 3 3 3 4 5
4 3 2 1 3 6 10 12 14 16 17 15 16 19 17 16 16 14 13 15 17 16 16 18 20 20 22 21 15 13 16 17 17 18 17 17 16 16 15 15 15 15 16 17 18 19 19 20 21 21 22 23 23 24 24 24 23 22 21 22 21 16 12 13 15 16 16 15 14 14 15 14 12 11 11 9 7 6 7 6 4 3 4 5 6
4 4 3 1 2 5 9 13 14 16 17 16 18 19 17 18 17 13 13 16 17 15 15 17 18 20 23 23 16 12 14 16 17 18 18 17 17 16 15 14 14 15 16 16 18 21 22 21 20 20 21 23 24 25 25 25 24 24 23 23 21 16 13 12 14 16 15 13 13 13 13 13 12 12 11 9 9 9 8 7 5 5 5 5 5
5 5 3 1 3 5 8 12 13 14 16 16 17 17 16 18 16 12 14 18 17 14 13 15 17 19 22 23 17 13 14 17 19 19 18 18 17 16 14 12 12 13 14 14 15 18 21 22 21 20 21 23 22 23 26 28 27 26 24 23 21 17 13 12 14 17 15 13 12 12 12 12 12 12 10 9 10 11 10 9 7 6 5 5 4
2 4 2 3 6 7 9 11 11 13 15 16 17 16 15 16 15 12 14 18 18 14 12 14 16 18 20 21 17 13 14 18 21 22 21 20 17 16 14 11 11 12 13 13 13 14 17 20 21 22 23 24 23 23 26 28 28 27 25 24 21 17 14 12 15 18 18 15 13 12 12 10 10 11 11 10 11 11 11 9 7 6 6 7 5
4 3 1 7 9 10 10 11 12 14 16 18 20 18 16 15 15 13 15 17 18 16 12 12 16 18 18 18 16 14 15 19 22 23 24 23 19 15 14 13 12 12 12 12 12 12 14 16 19 22 25 27 27 27 27 27 27 26 26 24 21 17 14 12 15 19 20 17 14 13 12 10 7 9 11 10 10 11 11 9 7 6 6 8 7
3 1 4 8 9 10 12 13 15 17 19 22 22 20 18 17 16 17 18 19 19 18 15 14 17 18 16 15 15 17 18 20 22 23 25 24 20 15 13 13 13 14 13 12 11 12 13 13 15 18 20 22 25 27 27 27 26 26 26 24 21 17 14 12 15 19 20 18 16 15 15 12 8 7 9 11 11 11 10 9 7 6 7 8 8
1 4 7 9 9 11 13 14 17 19 20 20 20 18 18 18 18 19 19 18 19 19 16 14 15 16 15 15 16 18 18 19 22 23 24 23 19 16 14 13 13 14 15 14 12 11 12 13 13 14 16 17 20 23 25 25 25 26 26 23 20 18 14 12 15 20 21 19 18 17 17 16 13 10 10 11 12 11 10 9 8 8 8 8 8
5 7 9 11 12 14 15 16 18 19 18 18 17 16 17 18 19 18 17 17 19 18 14 13 15 16 16 16 16 17 18 19 21 23 23 21 18 17 15 14 13 14 15 15 14 12 12 13 12 13 14 15 16 19 21 23 25 26 26 23 20 18 14 11 15 19 20 18 17 18 20 20 18 15 14 13 13 12 11 10 9 8 8 9 9
9 11 13 14 15 16 17 17 17 16 16 16 16 17 17 18 19 17 16 17 18 15 13 14 15 15 15 16 16 17 18 19 20 22 22 21 19 17 16 15 13 13 14 14 14 13 13 13 13 13 14 15 15 17 18 20 22 25 25 24 22 20 14 11 14 18 19 16 13 14 18 21 21 19 17 16 16 14 13 11 9 8 8 9 9
12 13 14 14 15 15 15 15 15 14 14 15 16 17 17 17 18 18 17 17 15 14 15 16 16 15 15 16 17 17 19 20 19 20 21 22 21 19 16 15 14 12 13 14 14 13 13 14 14 14 15 16 16 17 17 18 19 22 24 24 23 20 16 14 15 18 18 16 12 10 11 16 20 22 21 19 18 17 14 12 10 8 9 10 9
12 12 13 13 13 13 14 15 15 13 14 15 16 17 17 18 19 18 15 14 14 15 16 16 16 16 17 17 17 18 19 20 19 19 20 22 22 20 17 14 13 11 12 14 14 13 12 13 14 15 15 16 17 19 19 19 19 19 22 24 25 23 19 17 17 18 18 16 13 11 10 10 14 20 22 21 19 18 16 13 11 10 10 11 10
10 10 11 12 12 13 15 16 15 13 14 15 16 16 17 18 18 16 15 14 15 16 17 16 16 17 17 18 18 19 19 18 18 19 21 21 22 19 15 11 11 11 11 13 14 13 14 15 16 17 17 16 17 18 19 19 19 19 20 23 25 25 22 20 19 19 19 18 14 12 11 9 9 14 18 20 20 18 16 13 12 11 11 11 11
7 7 8 11 13 14 15 15 13 13 13 14 15 15 16 16 16 16 15 16 16 17 18 18 18 17 18 19 19 18 17 17 18 20 20 20 19 16 12 9 10 11 13 13 14 14 15 16 17 19 20 18 17 17 18 18 19 20 20 22 25 26 25 22 20 19 19 19 17 13 12 10 9 11 16 19 19 17 15 14 13 13 12 11 11
4 4 7 10 12 12 12 11 11 11 12 12 12 13 14 16 17 18 18 18 18 17 18 18 18 18 18 19 17 16 17 18 19 19 19 19 16 12 10 10 11 12 13 14 14 15 16 17 18 20 21 20 19 19 19 18 18 20 21 22 25 27 27 25 23 21 21 22 19 16 13 11 10 11 14 16 17 16 16 16 16 15 14 12 11
3 4 6 7 9 9 9 9 10 9 10 10 11 12 14 16 18 19 19 19 18 18 18 18 18 19 19 17 16 16 17 19 19 18 18 19 17 13 13 13 13 14 14 14 15 16 17 18 19 20 20 20 20 21 21 21 20 19 20 21 24 28 30 29 27 25 25 24 21 16 13 13 13 14 15 16 17 18 18 18 18 17 16 13 11
3 4 6 8 9 8 7 8 9 8 8 10 11 13 15 17 18 19 21 21 20 20 20 20 21 21 18 16 17 18 18 19 19 18 17 18 18 16 16 16 16 16 15 14 15 16 17 18 19 19 18 19 20 22 23 23 22 21 21 21 23 26 30 32 31 29 27 26 22 18 17 17 17 18 19 20 21 21 21 21 20 19 18 15 14
4 6 7 7 7 6 6 8 7 6 7 9 10 12 15 16 17 18 21 21 21 22 22 21 22 21 17 16 19 19 18 18 19 18 19 20 20 18 16 17 18 17 15 13 12 13 14 15 16 17 16 17 20 22 22 22 22 22 23 23 23 24 27 31 33 30 27 25 23 22 21 22 22 22 23 24 24 23 22 22 22 21 19 16 16
7 7 6 5 5 4 5 6 5 4 6 7 8 11 14 14 15 17 19 20 20 21 22 22 21 18 17 18 20 19 19 19 18 17 19 21 22 21 19 18 19 17 14 13 11 10 11 11 12 14 14 14 17 19 19 20 21 22 23 24 25 25 26 29 32 31 27 26 25 25 24 24 24 25 25 25 24 23 22 22 22 20 18 16 16
Wind_Direction
111 112 118 127 135 141 145 148 148 147 151 158 161 166 166 163 162 161 162 162 161 163 164 164 164 166 168 168 168 170 171 169 168 168 160 154 152 151 150 148 152 152 145 141 136 133 128 127 128 116 88 73 100 116 113 118 122 128 125 118 106 68 25 14 0 344 5 8 347 338 12 85 180 211 180 66 269 231 224 231 231 229 232 239 244
116 119 121 123 130 140 146 150 150 147 153 165 169 170 171 171 168 164 166 167 167 170 170 172 171 172 175 174 173 174 176 174 174 178 176 170 164 163 165 168 170 168 160 150 145 146 136 136 136 120 117 127 128 114 105 110 98 93 100 91 88 68 46 36 15 356 28 35 18 346 351 70 110 131 129 90 19 241 228 218 221 235 243 244 250
123 116 108 112 124 140 149 154 155 154 160 169 173 172 170 169 169 165 166 168 172 179 182 184 184 187 189 184 180 179 180 180 177 178 181 178 179 187 194 201 190 175 174 172 165 164 159 161 166 174 195 196 175 137 112 104 86 83 89 79 86 80 64 54 46 40 40 48 52 19 11 46 27 73 93 6 29 54 231 209 226 245 245 241 250
120 85 70 100 124 145 162 164 162 162 166 168 166 169 169 167 168 166 168 174 179 189 197 197 197 201 198 189 189 186 182 182 182 184 192 197 201 202 207 220 212 187 181 191 188 179 179 181 179 183 186 167 157 148 130 119 112 114 108 92 86 78 68 61 57 53 48 45 63 91 80 57 46 357 337 330 15 34 91 133 285 275 259 252 262
77 62 35 23 50 75 167 175 176 171 167 163 156 162 168 169 172 173 179 184 188 193 192 192 199 206 203 192 191 187 180 182 188 196 204 210 211 203 200 212 212 198 192 198 196 188 186 185 180 176 172 156 154 162 160 151 139 143 141 61 37 55 67 74 68 65 65 60 66 109 73 58 192 305 339 329 358 25 73 38 1 342 305 278 274
75 89 112 77 48 36 189 188 191 172 154 160 161 164 170 175 179 184 190 188 187 188 188 194 205 210 205 192 184 179 178 186 199 207 207 208 204 195 195 200 200 197 198 201 196 190 190 192 191 190 179 162 160 168 165 162 156 156 173 262 284 319 10 81 62 71 84 73 60 72 75 84 189 339 19 336 338 7 36 11 16 18 359 300 273
68 74 94 121 119 179 221 223 214 183 159 175 175 172 178 186 193 200 198 189 186 187 192 201 205 203 200 194 192 189 190 197 208 214 211 204 195 189 196 203 199 197 201 207 201 192 189 192 194 196 189 177 179 179 162 160 162 161 180 252 279 296 234 127 61 67 87 75 61 64 69 72 50 355 83 21 346 332 335 3 25 36 41 45 17
71 66 43 117 155 192 221 234 232 217 206 200 195 189 192 200 208 212 204 191 187 187 192 204 205 201 198 198 203 205 209 215 215 213 207 197 192 193 198 200 201 203 208 213 202 193 192 192 185 184 188 188 192 194 185 181 181 179 193 172 105 90 123 112 71 57 56 54 57 64 65 63 58 41 1 243 239 296 320 352 4 18 45 49 46
80 83 78 85 153 207 242 264 265 245 251 251 232 215 209 211 213 214 207 198 195 192 192 200 207 209 209 209 213 215 222 224 217 213 208 201 198 200 203 199 198 204 213 218 203 195 197 196 189 187 189 188 188 195 198 193 187 184 179 166 133 99 94 81 72 69 48 35 33 42 53 66 77 73 56 41 192 204 301 337 350 357 28 36 40
73 71 79 75 58 33 328 324 319 265 252 257 246 242 240 232 225 220 215 211 208 204 202 203 207 213 215 216 219 221 222 218 214 215 212 208 206 206 207 206 205 206 210 214 205 195 196 198 199 198 191 186 189 197 197 190 185 179 167 162 148 119 110 93 87 89 66 34 26 28 32 46 68 68 48 43 114 148 357 321 353 2 12 18 28
68 61 67 75 62 45 27 7 357 317 263 259 242 248 262 263 249 235 228 226 224 222 220 212 209 214 220 222 225 225 224 220 216 213 209 207 207 209 210 209 209 208 207 208 204 201 203 203 204 202 189 185 190 195 192 189 187 180 167 166 165 159 154 138 117 107 89 35 23 22 22 40 57 50 35 38 49 98 67 306 347 17 35 21 21
48 41 40 50 49 39 33 26 21 13 326 304 278 267 280 290 273 253 243 239 237 237 243 236 220 221 231 239 239 235 234 231 221 212 207 208 209 210 211 208 206 206 206 205 202 205 209 204 202 201 190 186 189 190 189 193 199 193 187 186 185 180 170 161 155 145 134 34 31 18 8 28 47 35 16 16 18 80 142 154 11 38 56 29 21
41 28 16 14 18 23 27 25 22 21 9 345 328 306 295 297 292 272 258 258 261 261 265 267 256 250 260 274 270 255 246 242 230 218 213 213 213 212 210 207 206 206 206 205 204 205 208 203 201 199 193 190 189 187 188 194 202 197 193 196 192 188 186 185 186 185 197 228 223 315 337 348 4 1 342 348 9 94 118 105 65 62 66 36 28
41 27 21 15 6 4 15 21 18 18 17 7 359 354 334 312 298 284 279 290 301 297 287 277 265 259 260 265 275 272 255 243 233 226 222 220 219 218 217 213 210 210 208 206 206 208 210 206 201 200 197 193 187 185 187 192 198 194 187 189 188 192 205 211 207 195 191 190 210 272 307 349 351 351 352 7 40 93 91 89 85 62 52 38 32
36 26 26 25 17 13 19 26 25 24 21 12 6 3 357 345 322 302 295 301 304 294 283 273 261 258 258 256 261 269 265 247 235 230 228 227 225 224 223 220 217 217 212 208 208 208 208 204 200 202 202 198 193 190 191 194 199 195 185 186 194 201 205 201 204 201 194 192 189 195 141 101 38 42 55 56 63 71 72 75 76 78 46 17 12
28 27 26 28 27 26 27 30 32 33 27 18 12 2 355 352 341 324 304 298 298 288 290 294 284 277 278 274 269 271 271 257 244 245 250 242 233 230 229 226 225 224 216 210 211 209 206 203 203 207 207 202 199 197 193 191 196 195 188 188 193 191 194 197 214 220 210 210 203 177 150 129 85 71 74 66 61 61 67 66 63 92 108 9 343
26 26 22 24 30 31 28 28 31 33 31 26 23 15 2 352 341 332 318 319 323 301 298 300 294 291 291 285 278 278 282 279 277 293 305 287 242 233 233 231 228 227 219 214 213 209 207 208 206 205 201 195 192 191 190 190 194 195 192 194 192 188 206 223 240 229 211 203 208 209 198 154 110 74 71 72 73 66 71 70 60 82 117 140 165
20 18 19 19 23 26 28 29 28 27 24 22 21 18 11 2 350 336 325 328 332 314 305 302 297 297 293 284 281 288 301 311 316 305 288 268 245 235 235 234 229 224 219 215 213 209 207 209 207 203 196 190 189 187 187 193 197 195 199 205 197 192 208 219 221 216 204 200 206 222 242 241 264 326 72 83 98 101 90 78 61 65 90 128 165
9 7 6 8 13 17 20 23 23 22 17 13 16 19 17 11 6 355 339 332 326 320 324 329 329 323 313 302 295 298 302 298 296 288 270 256 250 247 245 240 231 222 217 214 212 209 206 206 205 202 194 189 192 193 192 200 204 203 209 211 207 208 208 190 181 184 179 189 205 225 246 246 270 285 278 79 79 93 113 111 89 78 80 85 129
356 357 349 356 11 15 14 14 12 16 17 11 8 12 15 15 13 9 357 346 337 334 331 330 332 328 323 321 314 309 302 290 285 282 272 259 252 262 267 248 232 221 214 211 210 207 205 205 202 198 193 190 194 198 200 205 210 214 216 220 226 221 196 172 166 177 183 196 211 217 225 219 240 262 269 313 70 78 85 100 101 100 92 75 83
332 337 342 -0 18 21 16 13 9 11 14 12 5 360 3 10 13 12 9 2 351 344 335 327 331 328 321 321 322 322 314 301 293 287 281 269 257 267 277 250 230 220 212 208 207 204 203 205 202 197 196 195 196 201 204 207 213 218 217 227 227 201 190 191 194 200 197 200 204 202 210 205 209 229 243 264 260 59 63 86 86 84 86 73 67
277 302 340 7 23 24 16 10 8 5 1 2 1 356 354 -0 7 8 8 8 1 351 339 329 329 326 318 316 319 322 318 308 299 290 286 277 261 266 272 249 229 220 213 208 204 201 201 204 202 200 200 200 200 204 206 208 213 218 219 223 210 200 218 233 207 196 190 184 194 198 206 217 233 245 246 254 265 269 269 83 79 76 75 67 54
282 313 351 13 22 21 17 12 9 5 356 353 354 354 352 350 355 360 -0 1 359 354 348 338 330 324 319 316 315 319 319 312 302 291 285 279 264 258 263 251 229 214 208 203 198 198 199 200 201 203 204 204 204 204 205 209 213 217 220 218 212 218 235 228 200 200 200 190 200 209 220 233 242 242 228 224 233 234 241 218 106 97 85 73 58
339 351 13 29 30 24 21 13 6 2 359 356 357 0 1 357 354 354 357 2 -0 354 348 341 333 326 322 318 315 317 320 317 310 299 293 291 273 253 250 251 229 211 207 204 200 200 198 196 200 208 210 210 209 205 204 208 212 216 217 218 223 230 229 218 211 216 225 234 243 242 235 229 221 215 204 204 214 221 228 221 187 139 91 70 51
31 20 24 33 31 26 21 10 1 359 359 1 4 6 6 4 2 358 359 8 7 355 341 334 329 326 323 320 316 313 314 317 315 304 300 302 288 262 251 250 233 216 212 207 203 202 200 200 205 213 215 213 211 208 207 207 209 212 217 223 228 227 222 220 226 238 247 250 252 255 252 244 239 227 211 203 206 206 211 217 221 233 265 293 318
62 43 28 30 30 26 19 7 1 1 1 3 5 6 4 1 1 360 357 1 4 357 344 338 335 333 331 326 321 314 309 309 311 308 303 298 289 272 257 254 251 234 217 209 205 206 208 209 211 214 215 214 213 211 208 207 206 209 214 220 228 228 226 230 240 251 252 246 251 265 270 271 268 253 231 219 214 210 209 215 223 235 252 267 280
63 64 47 34 27 22 16 7 3 4 4 4 4 3 1 358 358 359 353 350 357 359 355 349 343 338 337 334 331 325 317 309 304 304 303 291 282 278 264 257 255 242 224 217 216 216 214 214 219 222 219 215 213 208 205 205 207 209 211 215 222 224 227 236 247 249 239 235 250 266 272 273 270 260 244 232 227 228 229 234 239 247 258 265 274
42 54 47 32 17 10 7 -0 358 -0 1 2 5 4 1 358 358 358 349 344 351 357 -0 357 350 343 339 338 338 334 326 317 307 300 299 289 272 264 259 256 251 241 232 226 222 219 214 210 219 224 221 217 210 204 203 204 203 205 209 213 217 220 226 235 241 238 231 233 246 257 266 266 257 247 243 241 252 267 271 269 266 267 271 275 280
45 38 23 12 4 5 2 349 345 350 352 353 359 2 358 356 359 359 352 344 342 350 359 359 352 348 345 344 347 345 336 326 315 306 302 295 283 268 256 254 252 242 235 231 227 225 222 218 217 217 216 215 209 205 204 204 201 203 208 211 216 222 230 236 235 233 235 242 248 246 248 248 239 240 246 255 282 295 286 269 262 264 270 274 278
83 48 303 316 351 6 6 354 346 345 347 349 354 357 356 356 360 5 4 355 340 338 354 358 352 351 352 349 349 350 345 338 328 319 313 305 296 286 267 255 253 249 242 240 241 243 238 232 226 223 224 222 217 212 209 206 206 210 214 213 217 224 233 238 235 232 233 238 240 236 231 221 216 229 253 271 298 306 294 239 236 250 242 238 248
167 180 269 316 351 2 0 356 349 344 345 351 356 359 3 5 7 13 16 13 -0 341 346 351 347 344 348 348 349 350 349 345 338 329 325 321 310 299 286 272 261 255 252 249 247 249 250 242 235 234 236 231 221 212 207 205 208 214 219 219 218 224 234 236 230 227 226 227 230 230 220 205 204 218 245 270 300 298 228 161 65 106 132 136 133
206 204 242 302 328 346 347 348 349 346 344 348 354 358 4 10 12 16 21 22 17 4 353 354 351 344 342 343 346 352 352 348 343 335 327 325 319 308 299 288 277 266 259 256 253 250 249 249 245 241 239 233 220 208 204 208 214 218 221 220 217 222 233 234 230 227 223 222 226 223 211 209 218 232 244 259 289 267 210 228 252 189 171 178 188
224 218 239 300 329 346 345 344 348 348 342 339 347 351 351 358 7 12 17 18 15 9 4 4 1 354 347 343 340 350 356 353 347 340 329 322 316 310 305 298 290 283 271 264 261 255 250 248 247 244 242 239 229 218 215 219 220 218 217 215 215 221 234 238 234 229 222 222 226 221 214 217 225 228 234 248 257 240 225 235 237 221 228 237 245
267 251 248 317 5 358 350 344 346 348 344 343 351 354 350 353 359 4 11 9 2 358 358 359 359 356 354 348 336 340 355 355 351 346 336 326 317 308 305 302 296 291 282 272 266 261 256 249 243 240 239 238 235 228 223 223 220 216 213 212 215 223 234 238 233 226 222 222 222 218 218 224 227 227 233 238 233 226 226 230 247 262 252 245 254
276 245 223 250 5 1 354 347 343 349 355 358 2 3 0 359 0 5 9 1 349 347 353 356 354 354 355 350 336 329 345 350 348 345 340 334 326 314 305 303 300 294 287 280 271 263 259 254 246 239 233 232 234 230 223 220 219 215 211 211 217 225 230 230 225 221 218 217 216 219 228 236 233 230 230 223 219 228 231 236 266 282 259 246 266
240 213 195 283 340 342 345 346 348 358 6 6 2 1 360 359 1 4 3 356 348 344 352 357 354 352 353 351 338 321 332 344 344 339 336 336 334 328 317 305 300 298 293 288 278 266 261 258 251 242 232 226 226 224 220 218 216 213 211 213 218 222 223 223 221 217 216 217 220 231 244 245 236 229 225 216 220 232 237 244 268 273 245 241 270
201 174 170 357 355 349 346 350 358 3 4 360 354 349 347 352 357 354 349 351 350 346 347 354 355 353 353 352 342 324 331 346 347 340 334 330 329 333 332 315 299 299 297 294 289 276 267 261 251 241 232 226 223 219 215 213 212 211 213 216 216 215 216 221 220 216 217 221 226 236 246 244 233 228 226 221 223 231 238 246 258 254 236 238 253
115 138 350 2 13 13 6 360 359 360 359 356 350 341 335 343 353 351 342 342 345 343 341 347 352 354 355 355 352 346 346 351 350 345 339 331 322 324 333 327 310 301 297 296 295 287 277 269 257 245 235 229 225 220 215 214 216 216 216 215 212 209 211 219 221 215 215 220 224 232 239 238 227 224 224 223 224 228 233 240 245 246 246 247 248
132 107 18 25 28 19 9 3 0 359 355 352 348 344 342 345 350 351 347 344 346 346 342 342 350 358 2 1 -0 358 354 351 347 344 342 337 325 314 320 327 321 310 302 297 294 288 281 276 270 261 247 234 229 227 224 224 222 218 216 212 208 207 209 217 219 214 214 218 223 230 236 237 232 226 223 224 227 229 231 237 242 251 263 269 264
80 60 45 38 27 14 8 4 360 356 354 355 356 355 356 356 355 356 356 355 353 352 351 352 359 8 10 5 1 357 351 347 345 344 343 341 331 313 307 318 323 318 311 302 294 290 287 282 277 272 262 247 239 236 234 233 227 219 214 210 208 209 210 214 218 215 213 219 226 231 236 237 237 235 231 230 232 235 237 241 247 261 278 287 283
66 61 40 28 22 16 9 1 357 358 2 9 11 7 5 3 1 3 4 358 354 356 3 9 8 7 4 358 356 353 350 349 351 352 349 345 335 316 303 309 318 318 314 309 301 294 291 287 278 271 264 255 246 240 238 236 229 220 214 212 215 219 216 213 218 217 216 223 233 237 237 237 236 237 239 237 237 239 241 244 254 274 289 292 287
64 53 36 28 24 17 9 3 3 5 8 13 14 10 7 5 2 1 356 350 352 1 10 12 8 4 2 359 356 353 353 354 356 356 355 354 349 330 308 303 311 314 313 310 304 297 292 289 281 271 265 259 250 245 244 240 231 222 218 218 222 224 217 209 217 220 219 224 236 241 240 238 236 237 240 239 238 240 242 246 259 281 292 290 284
58 47 35 27 19 12 8 5 4 5 8 11 11 7 5 1 356 354 352 353 2 9 8 5 5 4 1 0 358 355 354 354 355 356 356 356 358 351 327 306 302 310 314 310 305 300 295 290 285 278 270 263 255 251 249 245 236 228 226 226 226 226 218 209 214 222 223 225 230 236 241 240 237 237 239 238 237 238 242 247 258 278 292 291 282
58 46 30 19 11 5 -0 357 358 4 11 11 7 2 1 358 356 359 6 13 14 10 5 3 3 2 359 358 357 354 351 350 353 357 356 353 354 355 344 320 305 312 320 316 309 301 291 285 283 279 274 266 258 253 252 250 244 237 234 233 229 225 219 213 213 219 224 230 233 232 236 241 239 237 236 235 234 236 239 246 257 274 289 290 279
54 39 21 11 5 355 348 348 356 8 12 8 3 360 360 2 6 13 19 17 10 5 3 0 358 358 358 355 352 352 351 353 355 354 352 351 350 350 347 334 321 324 328 323 314 302 287 279 275 274 275 272 265 258 253 253 250 245 242 239 233 227 222 218 215 214 220 230 237 235 231 231 234 234 231 228 229 233 238 245 257 272 284 284 275
48 34 14 1 353 345 343 350 1 10 12 10 9 10 12 14 17 17 11 5 2 2 2 0 358 357 358 356 354 357 -0 0 358 351 348 349 352 354 358 355 342 337 333 327 318 304 289 278 272 271 273 273 269 263 257 253 251 247 244 242 236 230 225 222 219 216 218 225 233 236 233 227 224 224 223 224 227 233 239 247 257 269 278 277 268
37 12 358 353 354 357 3 8 9 9 13 15 17 22 25 22 19 15 10 7 6 5 4 4 1 357 357 357 359 3 5 1 358 354 352 352 355 359 3 359 348 340 333 326 319 307 291 278 272 272 273 270 265 261 257 253 251 248 245 241 236 230 224 222 222 219 217 221 228 233 233 227 220 215 217 223 229 233 239 249 258 268 273 270 260
14 7 14 23 33 37 31 15 3 6 17 22 22 23 23 22 21 19 14 11 11 10 7 5 0 356 358 2 4 2 358 355 354 356 356 356 355 351 345 342 341 339 332 323 318 310 299 289 281 276 274 270 263 258 256 254 253 252 248 242 236 230 223 221 222 219 216 220 227 228 219 211 209 211 215 222 229 235 243 254 262 267 269 264 253
32 62 70 67 60 48 25 5 3 14 25 25 24 22 21 23 24 19 11 9 10 8 4 0 358 358 2 6 4 357 351 349 349 351 353 354 353 348 340 336 338 341 337 327 317 312 309 306 297 287 279 269 263 263 266 265 262 260 256 249 242 235 229 227 227 222 216 218 224 223 214 209 211 216 221 228 235 242 251 260 265 268 268 263 250
100 100 91 74 61 43 14 6 11 22 29 28 25 22 22 24 23 16 11 9 7 4 1 359 357 0 5 3 356 352 351 349 347 346 347 347 347 347 345 341 341 343 343 335 321 313 314 313 305 298 291 277 271 275 278 274 267 263 260 257 254 249 242 235 230 223 215 216 220 219 216 216 217 220 226 233 240 247 255 263 267 269 267 259 246
126 119 100 78 67 38 6 10 21 22 23 29 27 21 20 19 19 16 12 8 5 4 2 358 356 360 3 358 352 350 351 351 348 345 342 341 342 343 344 344 344 344 344 343 336 327 326 321 309 305 303 293 285 281 278 275 271 266 262 259 257 255 248 240 232 223 214 214 218 219 219 220 221 224 229 235 242 249 256 263 268 268 264 255 242